Overview Statistics Trail Chart Weather Telemetry Raw packets
 

This is the latest recevied weather packets stored in our database for station/object N5ATR. If no packets are shown the sender has not sent any weather packets the latest 10 day(s).

<< 65 66 67 68 69 70 71 >>
Time Temp. Humidity Pressure Rain* Wind** Luminosity Snow
1788230012 16.11° C 78% 1024.1 hPa 0 mm - 0 W/m² -
1788229707 16.67° C 76% 1024 hPa 0 mm - 0 W/m² -
1788229403 17.22° C 74% 1024.1 hPa 0 mm - 0 W/m² -
1788229098 17.22° C 76% 1024 hPa 0 mm - 0 W/m² -
1788228794 17.22° C 78% 1024.1 hPa 0 mm - 0 W/m² -
1788228488 17.22° C 78% 1024.2 hPa 0 mm - 0 W/m² -
1788228184 17.22° C 81% 1024.4 hPa 0 mm - 0 W/m² -
1788227884 17.78° C 82% 1024.1 hPa 0 mm - 0 W/m² -
1788227581 17.78° C 77% 1024.2 hPa 0 mm - 0 W/m² -
1788227279 17.78° C 78% 1023.9 hPa 0 mm - 0 W/m² -
1788226975 17.78° C 77% 1023.9 hPa 0 mm - 0 W/m² -
1788226671 17.78° C 78% 1023.9 hPa 0 mm - 0 W/m² -
1788226366 17.22° C 78% 1023.8 hPa 0 mm - 0 W/m² -
1788226062 17.22° C 84% 1023.5 hPa 0 mm - 1 W/m² -
1788225761 16.67° C 83% 1024 hPa 0 mm - 2 W/m² -
1788225457 16.67° C 84% 1023.9 hPa 0 mm - 3 W/m² -
1788225152 16.67° C 85% 1023.4 hPa 0 mm - 8 W/m² -
1788224846 16.67° C 85% 1023.4 hPa 0 mm - 20 W/m² -
1788224541 16.67° C 84% 1023.1 hPa 0 mm - 31 W/m² -
1788224240 16.67° C 84% 1023.4 hPa 0 mm - 27 W/m² -
1788223936 16.67° C 86% 1023.1 hPa 0 mm - 21 W/m² -
1788223635 16.67° C 87% 1022.9 hPa 0 mm - 16 W/m² -
1788223330 16.67° C 86% 1022.6 hPa 0 mm - 9 W/m² -
1788223039 16.67° C 86% 1022.8 hPa 0 mm - 13 W/m² -
1788222724 16.11° C 86% 1022.9 hPa 0 mm - 18 W/m² -

* Rain latest hour (hover to see other rain measurements)
** Current wind speed in m/s (hover to see current wind gust speed)